Weather History for Augusta, ME

Change the Weather History Date:

Sunday, October 20, 2013

  Actual Average Record
Temperature  
Mean Temperature 53 °F -  
Max Temperature 60 °F 52 °F 69 °F (2007)
Min Temperature 46 °F 37 °F 27 °F (2008)
Degree Days  
Heating Degree Days 12    
Growing Degree Days 3 (Base 50)    
Moisture  
Dew Point 39 °F    
Average Humidity 65    
Maximum Humidity 97    
Minimum Humidity 30    
Precipitation  
Precipitation 0.01 in - - ()
Sea Level Pressure  
Sea Level Pressure 29.75 in    
Wind  
Wind Speed 7 mph (SW)    
Max Wind Speed 14 mph    
Max Gust Speed 25 mph    
Visibility 10 miles    
Events Rain    
Averages and records for this station are not official NWS values.
T = Trace of Precipitation, MM = Missing Value Source: NWS Daily Summary

Daily Weather History Graph

Daily Weather History Graph

Search for Another Location

Airport:

Trip Planner

Search our weather history database for the weather conditions in past years. The results will help you decide how hot, cold, wet, or windy it might be!

Date:

Astronomy

Oct. 20, 2013 Rise Set
Actual Time 7:00 AM EDT 5:46 PM EDT
Civil Twilight 6:31 AM EDT 6:15 PM EDT
Nautical Twilight 5:57 AM EDT 6:49 PM EDT
Astronomical Twilight 5:23 AM EDT 7:23 PM EDT
Moon 6:48 PM EDT (10/20) 8:39 AM EDT (10/20)
Length of Visible Light 11h 44m
Length of Day
10h 45m
Full, 97% of the Moon is Illuminated
Oct 20
Full
Oct 26
Last Quarter
Nov 3
New
Nov 10
First Quarter
Nov 17
Full

Hourly Weather History & Observations

Time (EDT) Temp. Dew Point Humidity Pressure Visibility Wind Dir Wind Speed Gust Speed Precip Events Conditions
12:53 AM 51.1 °F 46.9 °F 86% 29.74 in 10.0 mi SSE 5.8 mph - N/A   Overcast
1:53 AM 52.0 °F 48.0 °F 86% 29.72 in 10.0 mi South 6.9 mph - N/A   Overcast
2:53 AM 52.0 °F 48.9 °F 89% 29.70 in 9.0 mi South 6.9 mph - 0.00 in Rain Light Rain
3:53 AM 51.1 °F 50.0 °F 96% 29.68 in 9.0 mi South 4.6 mph - 0.01 in Rain Light Rain
4:53 AM 51.1 °F 48.9 °F 92% 29.68 in 10.0 mi SSE 8.1 mph - 0.00 in   Overcast
5:25 AM 51.8 °F 48.2 °F 88% 29.67 in 10.0 mi South 6.9 mph - N/A   Overcast
5:40 AM 50.0 °F 48.2 °F 94% 29.65 in 10.0 mi South 5.8 mph - N/A   Mostly Cloudy
5:53 AM 50.0 °F 48.0 °F 93% 29.66 in 10.0 mi South 4.6 mph - N/A   Partly Cloudy
6:53 AM 48.9 °F 48.0 °F 97% 29.66 in 6.0 mi SSW 4.6 mph - N/A   Partly Cloudy
7:49 AM 51.8 °F 48.2 °F 88% 29.67 in 8.0 mi WSW 3.5 mph - N/A   Mostly Cloudy
7:53 AM 51.1 °F 48.9 °F 92% 29.68 in 8.0 mi WSW 3.5 mph - N/A   Mostly Cloudy
8:19 AM 51.8 °F 48.2 °F 88% 29.68 in 10.0 mi Variable 3.5 mph - N/A   Mostly Cloudy
8:53 AM 52.0 °F 48.0 °F 86% 29.69 in 10.0 mi WSW 5.8 mph - N/A   Scattered Clouds
9:53 AM 55.0 °F 45.0 °F 69% 29.71 in 10.0 mi West 5.8 mph - N/A   Clear
10:53 AM 55.9 °F 42.1 °F 60% 29.72 in 10.0 mi West 9.2 mph 19.6 mph N/A   Partly Cloudy
11:53 AM 59.0 °F 35.1 °F 41% 29.73 in 10.0 mi West 9.2 mph 23.0 mph N/A   Partly Cloudy
12:53 PM 59.0 °F 32.0 °F 36% 29.73 in 10.0 mi West 12.7 mph 21.9 mph N/A   Clear
1:53 PM 59.0 °F 30.9 °F 35% 29.74 in 10.0 mi West 11.5 mph 20.7 mph N/A   Clear
2:53 PM 60.1 °F 28.0 °F 30% 29.75 in 10.0 mi West 10.4 mph 19.6 mph N/A   Clear
3:53 PM 59.0 °F 28.0 °F 31% 29.78 in 10.0 mi West 13.8 mph 25.3 mph N/A   Scattered Clouds
4:53 PM 57.9 °F 28.9 °F 33% 29.79 in 10.0 mi West 12.7 mph 21.9 mph N/A   Clear
5:53 PM 55.0 °F 28.9 °F 37% 29.82 in 10.0 mi West 11.5 mph 18.4 mph N/A   Clear
6:53 PM 54.0 °F 27.0 °F 35% 29.85 in 10.0 mi West 8.1 mph 17.3 mph N/A   Clear
7:53 PM 52.0 °F 28.0 °F 40% 29.87 in 10.0 mi WSW 6.9 mph - N/A   Clear
8:53 PM 51.1 °F 28.0 °F 41% 29.90 in 10.0 mi West 6.9 mph - N/A   Clear
9:53 PM 48.9 °F 28.9 °F 46% 29.92 in 10.0 mi SW 5.8 mph - N/A   Clear
10:53 PM 46.9 °F 30.9 °F 54% 29.94 in 10.0 mi South 4.6 mph - N/A   Clear
11:53 PM 46.9 °F 30.9 °F 54% 29.95 in 10.0 mi Calm Calm - N/A   Clear